This is the latest recevied weather packets stored in our database for station/object AD8BW. If no packets are shown the sender has not sent any weather packets the latest 10 day(s).
| Time | Temp. | Humidity | Pressure | Rain* | Wind** | Luminosity | Snow |
|---|---|---|---|---|---|---|---|
| 1777923214 | 23.89° C | 27% | 999.5 hPa | 0 mm | - | 304 W/m² | - |
| 1777922615 | 23.89° C | 27% | 999.7 hPa | 0 mm | - | 666 W/m² | - |
| 1777922016 | 23.89° C | 27% | 999.7 hPa | 0 mm | - | 751 W/m² | - |
| 1777921412 | 23.89° C | 27% | 999.9 hPa | 0 mm | - | 413 W/m² | - |
| 1777920812 | 23.89° C | 28% | 999.9 hPa | 0 mm | - | 722 W/m² | - |
| 1777920213 | 23.89° C | 29% | 1000.1 hPa | 0 mm | - | 861 W/m² | - |
| 1777919612 | 23.89° C | 30% | 1000.2 hPa | 0 mm | - | 842 W/m² | - |
| 1777919011 | 23.33° C | 33% | 1000.1 hPa | 0 mm | - | 392 W/m² | - |
| 1777918411 | 23.33° C | 33% | 1000.2 hPa | 0 mm | - | 469 W/m² | - |
| 1777917811 | 23.33° C | 33% | 1000.5 hPa | 0 mm | - | 244 W/m² | - |
| 1777917212 | 22.78° C | 34% | 1000.4 hPa | 0 mm | - | 322 W/m² | - |
| 1777916610 | 22.78° C | 36% | 1000.7 hPa | 0 mm | - | 387 W/m² | - |
| 1777916012 | 22.78° C | 37% | 1000.9 hPa | 0 mm | - | 93 W/m² | - |
| 1777915414 | 22.78° C | 37% | 1000.9 hPa | 0 mm | - | 195 W/m² | - |
| 1777914812 | 22.22° C | 36% | 1001.2 hPa | 0 mm | - | 153 W/m² | - |
| 1777914216 | 22.22° C | 36% | 1001.3 hPa | 0 mm | - | 211 W/m² | - |
| 1777913610 | 21.67° C | 38% | 1001.5 hPa | 0 mm | - | 113 W/m² | - |
| 1777913011 | 21.67° C | 38% | 1001.6 hPa | 0 mm | - | 454 W/m² | - |
| 1777912410 | 21.11° C | 42% | 1001.9 hPa | 0 mm | - | 86 W/m² | - |
| 1777911812 | 21.11° C | 45% | 1001.9 hPa | 0 mm | - | 148 W/m² | - |
| 1777911213 | 20.56° C | 43% | 1002.3 hPa | 0 mm | - | 100 W/m² | - |
| 1777910620 | 20° C | 48% | 1002.3 hPa | 0 mm | - | 276 W/m² | - |
| 1777910011 | 20° C | 52% | 1002.6 hPa | 0 mm | - | 186 W/m² | - |
| 1777909412 | 19.44° C | 53% | 1002.7 hPa | 0 mm | - | 130 W/m² | - |
| 1777908811 | 18.89° C | 55% | 1002.7 hPa | 0 mm | - | 487 W/m² | - |
* Rain latest hour (hover to see other rain measurements)
** Current wind speed in m/s (hover to see current wind gust speed)